Voltar ao catálogo

COSMOS 2247

AtivoNavegaçãoPO
NORAD 22648·PAYLOAD·🇷🇺 Russia

Lançado May 11, 1993 de Plesetsk Cosmodrome

Loading…

Próximas Passagens (próximas 24 horas)

TLE

AtualizadoSource: Space-Track

Época: Sep 14, 2026, 11:39 UTC

1 22648U 93030C   26257.48544032  .00000017  00000-0  33316-4 0  9997
2 22648  82.5742 258.9275 0009418  94.8253  59.5484 12.63282165537357

Acompanhe COSMOS 2247 em tempo real com AllMySat

Download on the App Store